Simultaneous Nadir Overpasses (SNOs) Predictions

Prediction of SNOs between METOP-A and TERRA Satellite Orbit:

Table of predicted SNOs for the next 14.0 days since TLE Epoch: 12/14/2012
Index Date (METOP-A) Time (METOP-A) Lat,Lon (METOP-A) SZA (METOP-A ) Date (TERRA) Time (TERRA) Lat,Lon (TERRA) SZA (TERRA ) Distance(km) Time Diff (sec)
1 12/14/2012 19:56:46 81.33, -71.69 107.38 12/14/2012 19:57:47 81.34, -71.51 107.42 3.14 61
2 12/14/2012 20:47:25 -81.34, 96.26 72.55 12/14/2012 20:47:13 -81.35, 96.40 72.54 2.40 12
3 12/17/2012 15:31:07 81.34, -5.08 107.48 12/17/2012 15:32:02 81.33, -5.19 107.48 2.04 55
4 12/17/2012 16:21:46 -81.34, 162.88 72.45 12/17/2012 16:21:28 -81.34, 162.74 72.48 2.40 18
5 12/20/2012 11:05:27 81.34, 61.26 107.48 12/20/2012 11:06:15 81.34, 61.43 107.52 2.89 48
6 12
